THOR ABLESTAR DEB, 13364

Orbit data source: Space-Track

THOR ABLESTAR DEB, 13364 is space debris in LEO originally from a launch on Thu, 29 Jun 1961 UTC launched from the Air Force Eastern Test Range (AFETR). Debris objects in space refer to the collection of defunct objects orbiting the Earth. Examples of debris include non-operational satellites, rocket bodies, and fragments generated from explosions, collisions, or faulty payload assembly.

Loading next visibility...
Identifier
13364, 1961-015KS
Orbit
LEO
Country
Flag of USUS
Related business
Manufacturer
Unknown
Mission
Spacecraft
Bus & Motor
Unknown
Mass
Unknown
Launch date (UTC)
1961-06-29 (65 years ago)
Launch vehicle
Unknown
Launch site
Air Force Eastern Test Range (AFETR)
Object type
Payload
Rocket body
Debris
Shape & HBR
Unknown shape, 0.1 m
Radar Cross Section
Small (<0.1 m²)

Expand to show TLE details & history
Last TLE update: 11 hours ago

TLE from 11 hours ago
0 THOR ABLESTAR DEB
1 13364U 61015KS  26124.99035410  .00000579  00000-0  63697-3 0  9991
2 13364  66.2604  71.4088 0100161 204.0221 227.0667 13.77367389406230
Epoch: 2026-05-04T23:46Z
TLE epoch observation values (Epoch: 2026-05-04T23:46:06.594Z)
Latitude
59.6081°
Longitude
-99.74628°
Altitude
1,033.031 km
Speed
7.316 km/s
True Right ascension
07h 58m 36s
True Declination
59° 27' 48"
Sunlit
Object was in daylight at epoch
Visualization orbit readout
Latitude
Unknown
Longitude
Unknown
Altitude
Unknown
Speed
Unknown
Apparent Right ascension
Unknown
Apparent Declination
Unknown
Sunlit
N/A
Visualization observer readout
Local Sidereal Time
18:15:56
Azimuth
Unknown
Elevation
Unknown
Doppler factor
Unknown
Orbital elements
Apogee altitude
1,045.321 km
Perigee altitude
898.088 km
Semi-major axis
7,349.842 km
Eccentricity
0.01002
Inclination
66.2604°
RAAN
71.4088°
Arg. of periapsis
204.0221°
True anomaly
226.23351°
Mean anomaly
227.0667°
Eccentric anomaly
226.64939°
Mean motion
3.4445 °/min
Orbital period
104.51 mins
BSTAR
0.00063697
Loading maneuver chart data...
Computing Atmospheric mass density...

Documentation

Showing up to 5 results
|